Regional Weather Roundup
Issued by NWS

Home | Current Version | Previous Version | Text Only | Print | Product List | Glossary On
Versions: 1 2 3 4 5 6 7 8 9 10 11 12 13 14 15 16 17 18 19 20 21 22 23 24 25 26 27 28 29 30 31 32 33 34 35 36 37 38 39 40 41 42 43 44 45 46 47 48 49 50
000
ASUS43 KLSX 221459
RWRMO

WEATHER SUMMARY FOR MISSOURI
NATIONAL WEATHER SERVICE SPRINGFIELD MO
900 AM CST MON DEC 22 2014

NOTE: "FAIR" INDICATES FEW OR NO CLOUDS BELOW 12,000 FEET WITH NO
       SIGNIFICANT WEATHER AND/OR OBSTRUCTIONS TO VISIBILITY.
       CURRENT SKY AND/OR WEATHER CONDITIONS ARE NOT AVAILABLE FOR
       CHILLICOTHE AND FARMINGTON.

MOZ001>031-035>038-043-044-053-054-221600-
...NORTHERN AND WESTERN MISSOURI...

CITY           SKY/WX    TMP DP  RH WIND       PRES   REMARKS
KANSAS CTY INT LGT RAIN  42  41  96 S10       29.57F FOG
KANSAS C DTWN  LGT RAIN  44  41  89 S8        29.58F
LEE`S SUMMIT   LGT RAIN  42  40  92 SE9       29.59F
ST JOSEPH      LGT RAIN  42  41  96 SE7       29.58F FOG
CHILLICOTHE      N/A     41  38  89 SE7       29.64F
KIRKSVILLE     CLOUDY    39  37  92 SE10      29.66F FOG

$$
MOZ066>068-077>081-088>096-101>105-221600-
...SOUTHWEST MISSOURI...

CITY           SKY/WX    TMP DP  RH WIND       PRES   REMARKS
SPRINGFIELD    LGT RAIN  44  41  89 SE14      29.62F FOG
JOPLIN         CLOUDY    46  44  93 SE9       29.60F

$$
MOZ032>034-039>042-045>050-055>058-069>072-221600-
...CENTRAL MISSOURI...

CITY           SKY/WX    TMP DP  RH WIND       PRES   REMARKS
COLUMBIA       CLOUDY    40  39  97 SE7       29.67S FOG
JEFFERSON CITY CLOUDY    41  40  96 SE7       29.68F FOG
ROLLA          LGT RAIN  43  41  93 MISG      29.67S FOG
SEDALIA        CLOUDY    43  39  86 SE12      29.63F
WARRENSBURG    CLOUDY    41  37  87 SE9       29.61F
OSAGE BEACH    CLOUDY    45  39  81 SE5       29.66F

$$
MOZ051-052-059>065-221600-
...EAST CENTRAL MISSOURI...

CITY           SKY/WX    TMP DP  RH WIND       PRES   REMARKS
ST LOUIS INTL  LGT RAIN  43  39  86 SE13      29.74F FOG
SPIRIT OF STL  RAIN      41  39  93 SE7       29.71F FOG
ST CHARLES     LGT RAIN  40  39  97 SE8       29.74S FOG

$$
MOZ072>076-082>087-097>100-106>115-221600-
...SOUTH CENTRAL AND SOUTHEAST MISSOURI...

CITY           SKY/WX    TMP DP  RH WIND       PRES   REMARKS
CAPE GIRARDEAU LGT RAIN  45  45 100 SE12      29.80F FOG
FARMINGTON     CLOUDY    43  43 100 SE12G18   29.75S
POPLAR BLUFF   LGT RAIN  46  44  93 SE13      29.76F FOG
WEST PLAINS    LGT RAIN  45  43  93 S13       29.70F

$$



USA.gov is the U.S. government's official web portal to all federal, state and local government web resources and services.